ONEWEB-0062, 45163

Orbit data source: Space-Track

ONEWEB-0062, 45163 is a payload satellite owned by One Web (UK) in LEO that was launched on Thu, 06 Feb 2020 UTC via a SOYUZ-2-1B launch vehicle from the Tyuratam Missile And Space Complex (TTMTR). Payload-class satellites include a variety of spacecraft equipped with specific instruments for various scientific and technological missions. These include communications satellites like Starlink; space stations such as the ISS; scientific satellites like the Hubble; Earth observation satellites from companies like Planet Labs, Umbra, and HawkEye 360; GPS; miniature CubeSats for education and research; and military/defense satellites.

Loading next visibility...
Identifier
45163, 2020-008AJ
Orbit
LEO
Country
Flag of UKUK
Related business
Manufacturer
One Web
Mission
Operational Commercial Communications
Bus & Motor
ARROW, Unknown motor
Mass
148 kg wet, ~140 kg dry
Launch date (UTC)
2020-02-06 (6 years ago)
Launch vehicle
SOYUZ-2-1B
Launch site
Tyuratam Missile And Space Complex (TTMTR)
Object type
Payload
Rocket body
Debris
Shape & HBR
Trap Box + 2 Pan, 6.7 m
Radar Cross Section
3.464 m², Large (>1 m²)

Expand to show TLE details & history
Last TLE update: 14 hours ago

TLE from 14 hours ago
0 ONEWEB-0062
1 45163U 20008AJ  25347.30243228  .00000567  00000-0  15870-2 0  9995
2 45163  87.8811  73.3169 0001609  86.4250 273.7062 13.10374954283843
Epoch: 2025-12-13T07:15Z
TLE epoch observation values (Epoch: 2025-12-13T07:15:30.148Z)
Latitude
0.00002°
Longitude
-117.79037°
Altitude
1,224.518 km
Speed
7.242 km/s
True Right ascension
04h 53m 16s
True Declination
0° 00' 00"
Sunlit
Object was in full shadow at epoch
Visualization orbit readout
Latitude
Unknown
Longitude
Unknown
Altitude
Unknown
Speed
Unknown
Apparent Right ascension
Unknown
Apparent Declination
Unknown
Sunlit
N/A
Visualization observer readout
Local Sidereal Time
20:09:36
Azimuth
Unknown
Elevation
Unknown
Doppler factor
Unknown
Orbital elements
Apogee altitude
1,220.051 km
Perigee altitude
1,217.606 km
Semi-major axis
7,596.966 km
Eccentricity
0.00016
Inclination
87.8811°
RAAN
73.3169°
Arg. of periapsis
86.425°
True anomaly
273.6878°
Mean anomaly
273.7062°
Eccentric anomaly
273.697°
Mean motion
3.2778 °/min
Orbital period
109.83 mins
BSTAR
0.001587
Loading maneuver chart data...
Computing Atmospheric mass density...
Loading historical data...
Loading historical data...
Loading historical data...
Loading historical data...
Loading historical data...
Loading historical data...
Loading historical data...

Documentation

Showing up to 5 results
|